Time,TemperatureF,DewpointF,PressureIn,WindDirection,WindDirectionDegrees,WindSpeedMPH,WindSpeedGustMPH,Humidity,HourlyPrecipIn,Conditions,Clouds,dailyrainin,SoftwareType,DateUTC
2013-02-22 00:00:00,43.0,36.0,-100.00,ESE,123,3.0,-999.0,75,0.00,,,-99.99,,2013-02-22 08:00:00,
2013-02-22 00:21:00,43.0,36.0,-100.00,ESE,123,3.0,-999.0,75,0.00,,,-99.99,,2013-02-22 08:21:00,
2013-02-22 00:32:00,43.0,36.0,-100.00,ESE,123,3.0,-999.0,75,0.00,,,-99.99,,2013-02-22 08:32:00,
2013-02-22 00:42:00,43.0,36.0,-100.00,ESE,123,3.0,-999.0,75,0.00,,,-99.99,,2013-02-22 08:42:00,
2013-02-22 00:52:00,43.0,36.0,-100.00,ESE,123,3.0,-999.0,75,0.00,,,-99.99,,2013-02-22 08:52:00,
2013-02-22 01:00:00,41.0,35.0,-100.00,SSE,168,2.0,-999.0,78,0.00,,,-99.99,,2013-02-22 09:00:00,
2013-02-22 01:22:00,41.0,35.0,-100.00,SSE,168,2.0,-999.0,78,0.00,,,-99.99,,2013-02-22 09:22:00,
2013-02-22 01:32:00,41.0,35.0,-100.00,SSE,168,2.0,-999.0,78,0.00,,,-99.99,,2013-02-22 09:32:00,
2013-02-22 01:42:00,41.0,35.0,-100.00,SSE,168,2.0,-999.0,78,0.00,,,-99.99,,2013-02-22 09:42:00,
2013-02-22 01:52:00,41.0,35.0,-100.00,SSE,168,2.0,-999.0,78,0.00,,,-99.99,,2013-02-22 09:52:00,
2013-02-22 02:00:00,43.0,35.0,-100.00,South,172,1.0,-999.0,72,0.00,,,-99.99,,2013-02-22 10:00:00,
2013-02-22 02:22:00,43.0,35.0,-100.00,South,172,1.0,-999.0,72,0.00,,,-99.99,,2013-02-22 10:22:00,
2013-02-22 02:32:00,43.0,35.0,-100.00,South,172,1.0,-999.0,72,0.00,,,-99.99,,2013-02-22 10:32:00,
2013-02-22 02:42:00,43.0,35.0,-100.00,South,172,1.0,-999.0,72,0.00,,,-99.99,,2013-02-22 10:42:00,
2013-02-22 02:52:00,43.0,35.0,-100.00,South,172,1.0,-999.0,72,0.00,,,-99.99,,2013-02-22 10:52:00,
2013-02-22 03:00:00,41.0,35.0,-100.00,SSE,167,1.0,-999.0,78,0.00,,,-99.99,,2013-02-22 11:00:00,
2013-02-22 03:22:00,41.0,35.0,-100.00,SSE,167,1.0,-999.0,78,0.00,,,-99.99,,2013-02-22 11:22:00,
2013-02-22 03:32:00,41.0,35.0,-100.00,SSE,167,1.0,-999.0,78,0.00,,,-99.99,,2013-02-22 11:32:00,
2013-02-22 03:42:00,41.0,35.0,-100.00,SSE,167,1.0,-999.0,78,0.00,,,-99.99,,2013-02-22 11:42:00,
2013-02-22 03:52:00,41.0,35.0,-100.00,SSE,167,1.0,-999.0,78,0.00,,,-99.99,,2013-02-22 11:52:00,
2013-02-22 04:00:00,40.0,34.0,-100.00,SSE,168,2.0,-999.0,79,0.00,,,-99.99,,2013-02-22 12:00:00,
2013-02-22 04:22:00,40.0,34.0,-100.00,SSE,168,2.0,-999.0,79,0.00,,,-99.99,,2013-02-22 12:22:00,
2013-02-22 04:32:00,40.0,34.0,-100.00,SSE,168,2.0,-999.0,79,0.00,,,-99.99,,2013-02-22 12:32:00,
2013-02-22 04:42:00,40.0,34.0,-100.00,SSE,168,2.0,-999.0,79,0.00,,,-99.99,,2013-02-22 12:42:00,
2013-02-22 04:52:00,40.0,34.0,-100.00,SSE,168,2.0,-999.0,79,0.00,,,-99.99,,2013-02-22 12:52:00,
2013-02-22 05:00:00,37.0,34.0,-100.00,South,172,3.0,-999.0,89,0.00,,,-99.99,,2013-02-22 13:00:00,
2013-02-22 05:22:00,37.0,34.0,-100.00,South,172,3.0,-999.0,89,0.00,,,-99.99,,2013-02-22 13:22:00,
2013-02-22 05:32:00,37.0,34.0,-100.00,South,172,3.0,-999.0,89,0.00,,,-99.99,,2013-02-22 13:32:00,
2013-02-22 05:42:00,37.0,34.0,-100.00,South,172,3.0,-999.0,89,0.00,,,-99.99,,2013-02-22 13:42:00,
2013-02-22 05:52:00,37.0,34.0,-100.00,South,172,3.0,-999.0,89,0.00,,,-99.99,,2013-02-22 13:52:00,
2013-02-22 06:00:00,36.0,33.0,-100.00,South,175,4.0,-999.0,89,0.00,,,-99.99,,2013-02-22 14:00:00,
2013-02-22 06:22:00,36.0,33.0,-100.00,South,175,4.0,-999.0,89,0.00,,,-99.99,,2013-02-22 14:22:00,
2013-02-22 06:32:00,36.0,33.0,-100.00,South,175,4.0,-999.0,89,0.00,,,-99.99,,2013-02-22 14:32:00,
2013-02-22 06:42:00,36.0,33.0,-100.00,South,175,4.0,-999.0,89,0.00,,,-99.99,,2013-02-22 14:42:00,
2013-02-22 06:52:00,36.0,33.0,-100.00,South,175,4.0,-999.0,89,0.00,,,-99.99,,2013-02-22 14:52:00,
2013-02-22 07:00:00,35.0,32.0,-100.00,South,188,1.0,-999.0,88,0.00,,,-99.99,,2013-02-22 15:00:00,
2013-02-22 07:22:00,35.0,32.0,-100.00,South,188,1.0,-999.0,88,0.00,,,-99.99,,2013-02-22 15:22:00,
2013-02-22 07:32:00,35.0,32.0,-100.00,South,188,1.0,-999.0,88,0.00,,,-99.99,,2013-02-22 15:32:00,
2013-02-22 07:42:00,35.0,32.0,-100.00,South,188,1.0,-999.0,88,0.00,,,-99.99,,2013-02-22 15:42:00,
2013-02-22 07:52:00,35.0,32.0,-100.00,South,188,1.0,-999.0,88,0.00,,,-99.99,,2013-02-22 15:52:00,
2013-02-22 08:00:00,34.0,32.0,-100.00,South,183,3.0,-999.0,91,0.00,,,-99.99,,2013-02-22 16:00:00,
2013-02-22 08:22:00,34.0,32.0,-100.00,South,183,3.0,-999.0,91,0.00,,,-99.99,,2013-02-22 16:22:00,
2013-02-22 08:32:00,34.0,32.0,-100.00,South,183,3.0,-999.0,91,0.00,,,-99.99,,2013-02-22 16:32:00,
2013-02-22 08:42:00,34.0,32.0,-100.00,South,183,3.0,-999.0,91,0.00,,,-99.99,,2013-02-22 16:42:00,
2013-02-22 08:52:00,34.0,32.0,-100.00,South,183,3.0,-999.0,91,0.00,,,-99.99,,2013-02-22 16:52:00,
2013-02-22 09:00:00,39.0,35.0,-100.00,South,172,2.0,-999.0,85,0.00,,,-99.99,,2013-02-22 17:00:00,
2013-02-22 09:22:00,39.0,35.0,-100.00,South,172,2.0,-999.0,85,0.00,,,-99.99,,2013-02-22 17:22:00,
2013-02-22 09:32:00,39.0,35.0,-100.00,South,172,2.0,-999.0,85,0.00,,,-99.99,,2013-02-22 17:32:00,
2013-02-22 09:42:00,39.0,35.0,-100.00,South,172,2.0,-999.0,85,0.00,,,-99.99,,2013-02-22 17:42:00,
2013-02-22 09:52:00,39.0,35.0,-100.00,South,172,2.0,-999.0,85,0.00,,,-99.99,,2013-02-22 17:52:00,
2013-02-22 10:00:00,45.0,36.0,-100.00,South,170,3.0,-999.0,72,0.00,,,-99.99,,2013-02-22 18:00:00,
2013-02-22 10:23:00,45.0,36.0,-100.00,South,170,3.0,-999.0,72,0.00,,,-99.99,,2013-02-22 18:23:00,
2013-02-22 10:32:00,45.0,36.0,-100.00,South,170,3.0,-999.0,72,0.00,,,-99.99,,2013-02-22 18:32:00,
2013-02-22 10:42:00,45.0,36.0,-100.00,South,170,3.0,-999.0,72,0.00,,,-99.99,,2013-02-22 18:42:00,
2013-02-22 10:52:00,45.0,36.0,-100.00,South,170,3.0,-999.0,72,0.00,,,-99.99,,2013-02-22 18:52:00,
2013-02-22 11:00:00,54.0,37.0,-100.00,South,185,2.0,-999.0,53,0.00,,,-99.99,,2013-02-22 19:00:00,
2013-02-22 11:21:00,54.0,37.0,-100.00,South,185,2.0,-999.0,53,0.00,,,-99.99,,2013-02-22 19:21:00,
2013-02-22 11:31:00,54.0,37.0,-100.00,South,185,2.0,-999.0,53,0.00,,,-99.99,,2013-02-22 19:31:00,
2013-02-22 11:42:00,54.0,37.0,-100.00,South,185,2.0,-999.0,53,0.00,,,-99.99,,2013-02-22 19:42:00,
2013-02-22 11:52:00,54.0,37.0,-100.00,South,185,2.0,-999.0,53,0.00,,,-99.99,,2013-02-22 19:52:00,
2013-02-22 12:00:00,56.0,36.0,-100.00,NNW,336,2.0,-999.0,46,0.00,,,-99.99,,2013-02-22 20:00:00,
2013-02-22 12:22:00,56.0,36.0,-100.00,NNW,336,2.0,-999.0,46,0.00,,,-99.99,,2013-02-22 20:22:00,
2013-02-22 12:32:00,56.0,36.0,-100.00,NNW,336,2.0,-999.0,46,0.00,,,-99.99,,2013-02-22 20:32:00,
2013-02-22 12:42:00,56.0,36.0,-100.00,NNW,336,2.0,-999.0,46,0.00,,,-99.99,,2013-02-22 20:42:00,
2013-02-22 12:52:00,56.0,36.0,-100.00,NNW,336,2.0,-999.0,46,0.00,,,-99.99,,2013-02-22 20:52:00,
2013-02-22 13:00:00,62.0,37.0,-100.00,NNW,330,2.0,-999.0,39,0.00,,,-99.99,,2013-02-22 21:00:00,
2013-02-22 13:22:00,62.0,37.0,-100.00,NNW,330,2.0,-999.0,39,0.00,,,-99.99,,2013-02-22 21:22:00,
2013-02-22 13:32:00,62.0,37.0,-100.00,NNW,330,2.0,-999.0,39,0.00,,,-99.99,,2013-02-22 21:32:00,
2013-02-22 13:42:00,62.0,37.0,-100.00,NNW,330,2.0,-999.0,39,0.00,,,-99.99,,2013-02-22 21:42:00,
2013-02-22 13:52:00,62.0,37.0,-100.00,NNW,330,2.0,-999.0,39,0.00,,,-99.99,,2013-02-22 21:52:00,
2013-02-22 14:00:00,61.0,38.0,-100.00,NW,312,2.0,-999.0,42,0.00,,,-99.99,,2013-02-22 22:00:00,
2013-02-22 14:22:00,61.0,38.0,-100.00,NW,312,2.0,-999.0,42,0.00,,,-99.99,,2013-02-22 22:22:00,
2013-02-22 14:32:00,61.0,38.0,-100.00,NW,312,2.0,-999.0,42,0.00,,,-99.99,,2013-02-22 22:32:00,
2013-02-22 14:42:00,61.0,38.0,-100.00,NW,312,2.0,-999.0,42,0.00,,,-99.99,,2013-02-22 22:42:00,
2013-02-22 14:52:00,61.0,38.0,-100.00,NW,312,2.0,-999.0,42,0.00,,,-99.99,,2013-02-22 22:52:00,
2013-02-22 15:00:00,61.0,39.0,-100.00,WNW,294,3.0,-999.0,44,0.00,,,-99.99,,2013-02-22 23:00:00,
2013-02-22 15:21:00,61.0,39.0,-100.00,WNW,294,3.0,-999.0,44,0.00,,,-99.99,,2013-02-22 23:21:00,
2013-02-22 15:32:00,61.0,39.0,-100.00,WNW,294,3.0,-999.0,44,0.00,,,-99.99,,2013-02-22 23:32:00,
2013-02-22 15:42:00,61.0,39.0,-100.00,WNW,294,3.0,-999.0,44,0.00,,,-99.99,,2013-02-22 23:42:00,
2013-02-22 15:52:00,61.0,39.0,-100.00,WNW,294,3.0,-999.0,44,0.00,,,-99.99,,2013-02-22 23:52:00,
2013-02-22 16:00:00,59.0,40.0,-100.00,NW,315,3.0,-999.0,48,0.00,,,-99.99,,2013-02-23 00:00:00,
2013-02-22 16:21:00,59.0,40.0,-100.00,NW,315,3.0,-999.0,48,0.00,,,-99.99,,2013-02-23 00:21:00,
2013-02-22 16:32:00,59.0,40.0,-100.00,NW,315,3.0,-999.0,48,0.00,,,-99.99,,2013-02-23 00:32:00,
2013-02-22 16:42:00,59.0,40.0,-100.00,NW,315,3.0,-999.0,48,0.00,,,-99.99,,2013-02-23 00:42:00,
2013-02-22 16:52:00,59.0,40.0,-100.00,NW,315,3.0,-999.0,48,0.00,,,-99.99,,2013-02-23 00:52:00,
2013-02-22 17:00:00,57.0,41.0,-100.00,NW,315,3.0,-999.0,55,0.00,,,-99.99,,2013-02-23 01:00:00,
2013-02-22 17:21:00,57.0,41.0,-100.00,NW,315,3.0,-999.0,55,0.00,,,-99.99,,2013-02-23 01:21:00,
2013-02-22 17:32:00,57.0,41.0,-100.00,NW,315,3.0,-999.0,55,0.00,,,-99.99,,2013-02-23 01:32:00,
2013-02-22 17:42:00,57.0,41.0,-100.00,NW,315,3.0,-999.0,55,0.00,,,-99.99,,2013-02-23 01:42:00,
2013-02-22 17:52:00,57.0,41.0,-100.00,NW,315,3.0,-999.0,55,0.00,,,-99.99,,2013-02-23 01:52:00,
2013-02-22 18:00:00,54.0,42.0,-100.00,NNW,336,2.0,-999.0,63,0.00,,,-99.99,,2013-02-23 02:00:00,
2013-02-22 18:21:00,54.0,42.0,-100.00,NNW,336,2.0,-999.0,63,0.00,,,-99.99,,2013-02-23 02:21:00,
2013-02-22 18:32:00,54.0,42.0,-100.00,NNW,336,2.0,-999.0,63,0.00,,,-99.99,,2013-02-23 02:32:00,
2013-02-22 18:42:00,54.0,42.0,-100.00,NNW,336,2.0,-999.0,63,0.00,,,-99.99,,2013-02-23 02:42:00,
2013-02-22 18:52:00,54.0,42.0,-100.00,NNW,336,2.0,-999.0,63,0.00,,,-99.99,,2013-02-23 02:52:00,
2013-02-22 19:00:00,49.0,42.0,-100.00,NW,317,2.0,-999.0,75,0.00,,,-99.99,,2013-02-23 03:00:00,
2013-02-22 19:22:00,49.0,42.0,-100.00,NW,317,2.0,-999.0,75,0.00,,,-99.99,,2013-02-23 03:22:00,
2013-02-22 19:32:00,49.0,42.0,-100.00,NW,317,2.0,-999.0,75,0.00,,,-99.99,,2013-02-23 03:32:00,
2013-02-22 19:42:00,49.0,42.0,-100.00,NW,317,2.0,-999.0,75,0.00,,,-99.99,,2013-02-23 03:42:00,
2013-02-22 19:52:00,49.0,42.0,-100.00,NW,317,2.0,-999.0,75,0.00,,,-99.99,,2013-02-23 03:52:00,
2013-02-22 20:00:00,47.0,41.0,-100.00,NNW,340,5.0,-999.0,79,0.00,,,-99.99,,2013-02-23 04:00:00,
2013-02-22 20:21:00,47.0,41.0,-100.00,NNW,340,5.0,-999.0,79,0.00,,,-99.99,,2013-02-23 04:21:00,
2013-02-22 20:32:00,47.0,41.0,-100.00,NNW,340,5.0,-999.0,79,0.00,,,-99.99,,2013-02-23 04:32:00,
2013-02-22 20:42:00,47.0,41.0,-100.00,NNW,340,5.0,-999.0,79,0.00,,,-99.99,,2013-02-23 04:42:00,
2013-02-22 20:52:00,47.0,41.0,-100.00,NNW,340,5.0,-999.0,79,0.00,,,-99.99,,2013-02-23 04:52:00,
2013-02-22 21:00:00,46.0,41.0,-100.00,North,354,4.0,-999.0,81,0.00,,,-99.99,,2013-02-23 05:00:00,
2013-02-22 21:23:00,46.0,41.0,-100.00,North,354,4.0,-999.0,81,0.00,,,-99.99,,2013-02-23 05:23:00,
2013-02-22 21:33:00,46.0,41.0,-100.00,North,354,4.0,-999.0,81,0.00,,,-99.99,,2013-02-23 05:33:00,
2013-02-22 21:42:00,46.0,41.0,-100.00,North,354,4.0,-999.0,81,0.00,,,-99.99,,2013-02-23 05:42:00,
2013-02-22 21:52:00,46.0,41.0,-100.00,North,354,4.0,-999.0,81,0.00,,,-99.99,,2013-02-23 05:52:00,
2013-02-22 22:00:00,47.0,40.0,-100.00,NW,320,4.0,-999.0,75,0.00,,,-99.99,,2013-02-23 06:00:00,
2013-02-22 22:23:00,47.0,40.0,-100.00,NW,320,4.0,-999.0,75,0.00,,,-99.99,,2013-02-23 06:23:00,
2013-02-22 22:32:00,47.0,40.0,-100.00,NW,320,4.0,-999.0,75,0.00,,,-99.99,,2013-02-23 06:32:00,
2013-02-22 22:42:00,47.0,40.0,-100.00,NW,320,4.0,-999.0,75,0.00,,,-99.99,,2013-02-23 06:42:00,
2013-02-22 22:52:00,47.0,40.0,-100.00,NW,320,4.0,-999.0,75,0.00,,,-99.99,,2013-02-23 06:52:00,
2013-02-22 23:00:00,45.0,39.0,-100.00,WNW,301,2.0,-999.0,77,0.00,,,-99.99,,2013-02-23 07:00:00,
2013-02-22 23:21:00,45.0,39.0,-100.00,WNW,301,2.0,-999.0,77,0.00,,,-99.99,,2013-02-23 07:21:00,
2013-02-22 23:32:00,45.0,39.0,-100.00,WNW,301,2.0,-999.0,77,0.00,,,-99.99,,2013-02-23 07:32:00,
2013-02-22 23:42:00,45.0,39.0,-100.00,WNW,301,2.0,-999.0,77,0.00,,,-99.99,,2013-02-23 07:42:00,
2013-02-22 23:52:00,45.0,39.0,-100.00,WNW,301,2.0,-999.0,77,0.00,,,-99.99,,2013-02-23 07:52:00,